パンスターズ彗星

P/2017 U3 ( PanSTARRS )

English version
Home page
Updated on December 24, 2017

---------------------------------------------------------------------

・ プロフィール

発見日 2017年10月28日
発見光度 21.7等
発見者 Pan-STARRS 1 telescope (Haleakala)

・ 写真集

・ 軌道要素

Epoch 2019 Apr. 27.0 TT = JDT 2458600.5
T 2019 Apr. 20.78622 TT                                 MPCW
q   4.4433420            (2000.0)            P               Q
n   0.08991177     Peri.  297.38533     -0.22506983     -0.97179386
a   4.9346728      Node   165.10844     +0.96240897     -0.23301018
e   0.0995670      Incl.   15.90562     +0.15202810     +0.03637232
P  10.96
From 55 observations 2017 Oct. 1-Nov. 22, mean residual 0".5.

・ 光度変化

        m1 = 11.0 + 5 logΔ + 10.0 log r

---------------------------------------------------------------------

軌道要素はM.P.E.C. 2017-X08に掲載されたものです。
光度グラフはComet for Windowsで作成したものです。

---------------------------------------------------------------------

Copyright(C) Seiichi Yoshida (comet@aerith.net). All rights reserved.